Lid_Strength_Index
12 13 15 13 10 9 8 6 6 7 5 6 7 4 4 2 0 -0 -0 -0 -0 -1 -1 -1 -1 -1 -1 -1 -1 -1 -1 -1
13 14 14 10 10 8 8 6 5 6 8 5 3 3 3 0 0 0 1 -0 -1 -1 -1 -1 -1 -1 -1 -1 -1 -1 -1 -1
16 16 10 9 8 7 8 7 7 6 8 7 3 2 2 1 0 1 1 0 -0 -1 -1 -1 -1 -1 -1 -1 -1 -1 -1 -1
17 15 10 9 7 7 8 7 6 7 7 6 2 3 3 1 1 -0 0 -0 -0 -1 -1 -1 -1 -1 -1 -1 -1 -1 -2 -2
16 15 12 9 7 8 7 8 7 5 8 6 4 4 3 2 0 0 -0 -0 -0 -0 -1 -1 -1 -1 -1 -1 -2 -2 -2 -2
14 15 14 8 8 6 7 7 4 4 8 8 4 3 3 1 1 1 0 0 0 0 0 -0 -0 -1 -1 -2 -2 -2 -2 -2
14 14 10 8 9 6 4 6 5 4 4 3 2 2 2 2 2 1 1 1 0 0 0 0 0 -0 -1 -1 -1 -2 -1 -2
12 12 9 8 8 7 7 7 6 5 3 3 3 3 3 3 3 3 2 1 0 0 0 0 -0 0 0 -0 -0 -0 -0 -0
11 10 9 8 8 6 8 9 7 6 5 4 4 3 3 3 3 3 2 1 0 0 0 0 -0 0 0 -0 0 -0 -0 0
10 10 8 8 7 8 7 7 4 4 4 4 4 4 4 3 3 3 3 1 1 0 0 0 0 -0 -0 -0 0 0 -0 1
11 11 8 6 7 7 7 5 5 4 4 4 4 4 3 3 2 2 3 2 1 0 0 -0 0 -0 -0 -0 -0 -0 1 -0
11 11 12 8 8 7 6 4 5 4 5 4 4 4 4 3 3 3 3 2 1 0 0 0 0 0 1 1 0 1 0 -0
11 12 9 6 10 9 5 5 6 5 5 4 4 4 4 4 3 2 3 2 1 1 0 1 0 0 1 1 0 1 1 2
12 11 8 9 11 8 5 6 6 6 5 4 4 3 3 3 5 3 3 3 2 0 1 1 1 1 2 1 1 2 3 3
11 11 8 10 12 10 7 6 7 6 5 5 5 4 3 2 3 4 3 2 3 2 2 2 2 2 3 3 4 4 3 3
13 11 11 12 10 10 9 6 6 6 6 5 5 5 3 2 2 2 2 2 2 3 2 3 3 4 4 4 4 4 4 3
11 10 11 12 12 10 9 8 7 7 6 6 6 4 3 3 2 2 1 1 1 3 3 3 4 4 5 5 4 4 3 3
11 10 11 12 12 10 8 8 7 7 7 6 6 5 4 3 3 2 2 2 2 2 2 3 3 3 3 3 4 3 3 3
12 11 11 12 13 10 9 8 7 7 6 6 6 6 5 4 3 3 2 2 3 2 2 2 3 3 4 4 4 4 4 6
11 12 15 13 16 13 10 10 9 8 7 7 6 5 5 4 4 3 3 3 3 3 3 3 3 4 4 4 5 5 7 8